Terug naar catalogus

QIANFAN-203

ActiefCommunicatiePO
NORAD 69802·PAYLOAD·🇨🇳 China

Gelanceerd Jul 4, 2026 vanaf Taiyuan Satellite Launch Center

Loading…

Volgende Passages (komende 24 uur)

TLE

VersSource: Space-Track

Epoch: Sep 14, 2026, 21:38 UTC

1 69802U 26153C   26257.90145084  .00000103  00000-0  52480-4 0  9992
2 69802  88.9980 352.0862 0006111   6.5765 353.5497 14.07835745 10262

Volg QIANFAN-203 in realtime met AllMySat

Download on the App Store